Weather History for KMDZ - February, 2013

Change the Weather History Date:

Monday, February 18, 2013

  Actual Average (KAUW) Record (KAUW)
Temperature  
Mean Temperature 26 °F 20 °F  
Max Temperature 33 °F 29 °F 53 °F (1981)
Min Temperature 19 °F 11 °F -23 °F (1936)
Degree Days  
Heating Degree Days 39 45  
Month to date heating degree days 853  
Since 1 July heating degree days 5703  
Cooling Degree Days 0 0  
Month to date cooling degree days 0  
Year to date cooling degree days 0  
Moisture  
Dew Point 22 °F    
Average Humidity 83    
Maximum Humidity 93    
Minimum Humidity 74    
Precipitation  
Precipitation 0.83 in 0.03 in 0.60 in (1961)
Month to date precipitation 0.54  
Year to date precipitation 1.56  
Snow  
Snow 0.00 in 0.30 in 8.00 in (1961)
Month to date snowfall 6.1  
Since 1 July snowfall 41.8  
Snow Depth -    
Sea Level Pressure  
Sea Level Pressure 29.53 in    
Wind  
Wind Speed 10 mph (South)    
Max Wind Speed 21 mph    
Max Gust Speed 22 mph    
Visibility 7 miles    
Events Snow    
T = Trace of Precipitation, MM = Missing Value Source: NWS Daily Summary

Daily Weather History Graph

Daily Weather History Graph

Search for Another Location

Airport or City:

Trip Planner

Search our weather history database for the weather conditions in past years. The results will help you decide how hot, cold, wet, or windy it might be!

Date:

Astronomy

Feb. 18, 2013 Rise Set
Actual Time 6:57 AM CST 5:33 PM CST
Civil Twilight 6:27 AM CST 6:03 PM CST
Nautical Twilight 5:52 AM CST 6:38 PM CST
Astronomical Twilight 5:18 AM CST 7:12 PM CST
Moon 11:11 AM CST (2/18) 1:44 AM CST (2/18)
Length of Visible Light 11h 36m
Length of Day
10h 36m
First Quarter, 58% of the Moon is Illuminated
Feb 18
First Quarter
Feb 25
Full
Mar 4
Last Quarter
Mar 11
New
Mar 19
First Quarter

Hourly Weather History & Observations

Time (CST) Temp. Windchill Dew Point Humidity Pressure Visibility Wind Dir Wind Speed Gust Speed Precip Events Conditions
12:15 AM 19.4 °F 6.6 °F 12.2 °F 74% 29.76 in 10.0 mi SE 12.7 mph 18.4 mph N/A   Clear
12:35 AM 19.4 °F 7.2 °F 12.2 °F 74% 29.75 in 10.0 mi SE 11.5 mph 17.3 mph N/A   Scattered Clouds
12:55 AM 21.2 °F 9.5 °F 14.0 °F 74% 29.74 in 10.0 mi SE 11.5 mph 18.4 mph N/A   Clear
1:15 AM 21.2 °F 9.5 °F 14.0 °F 74% 29.72 in 10.0 mi SE 11.5 mph 16.1 mph N/A   Clear
1:35 AM 21.2 °F 8.3 °F 15.8 °F 80% 29.70 in 10.0 mi SE 13.8 mph 20.7 mph N/A   Clear
1:55 AM 23.0 °F 11.7 °F 15.8 °F 74% 29.69 in 10.0 mi SE 11.5 mph 18.4 mph N/A   Scattered Clouds
2:15 AM 23.0 °F 11.7 °F 15.8 °F 74% 29.68 in 10.0 mi SE 11.5 mph - N/A   Overcast
2:35 AM 23.0 °F 13.1 °F 15.8 °F 74% 29.67 in 10.0 mi SE 9.2 mph - N/A   Overcast
2:55 AM 23.0 °F 11.7 °F 17.6 °F 80% 29.66 in 10.0 mi SE 11.5 mph 16.1 mph N/A   Overcast
3:15 AM 23.0 °F 11.7 °F 17.6 °F 80% 29.64 in 10.0 mi SSE 11.5 mph 17.3 mph N/A   Scattered Clouds
3:35 AM 23.0 °F 12.4 °F 15.8 °F 74% 29.64 in 10.0 mi SE 10.4 mph - N/A   Clear
3:55 AM 23.0 °F 12.4 °F 17.6 °F 80% 29.63 in 10.0 mi SE 10.4 mph 17.3 mph N/A   Clear
4:15 AM 23.0 °F 11.7 °F 17.6 °F 80% 29.63 in 10.0 mi ESE 11.5 mph 16.1 mph N/A   Clear
4:35 AM 23.0 °F 11.7 °F 17.6 °F 80% 29.62 in 10.0 mi ESE 11.5 mph - N/A   Clear
4:55 AM 23.0 °F 12.4 °F 17.6 °F 80% 29.61 in 10.0 mi SE 10.4 mph - N/A   Clear
5:15 AM 23.0 °F 12.4 °F 17.6 °F 80% 29.61 in 10.0 mi SE 10.4 mph - N/A   Clear
5:35 AM 23.0 °F 13.1 °F 17.6 °F 80% 29.60 in 10.0 mi ESE 9.2 mph - N/A   Clear
6:15 AM 21.2 °F 10.9 °F 17.6 °F 86% 29.58 in 10.0 mi ESE 9.2 mph - N/A   Clear
6:35 AM 21.2 °F 10.1 °F 17.6 °F 86% 29.57 in 10.0 mi SE 10.4 mph - N/A   Clear
6:55 AM 21.2 °F 12.6 °F 17.6 °F 86% 29.57 in 10.0 mi SE 6.9 mph - N/A   Clear
7:15 AM 21.2 °F 12.6 °F 17.6 °F 86% 29.57 in 10.0 mi SE 6.9 mph - N/A   Clear
7:35 AM 21.2 °F 13.6 °F 17.6 °F 86% 29.56 in 10.0 mi ESE 5.8 mph - N/A   Clear
7:55 AM 23.0 °F 15.8 °F 17.6 °F 80% 29.56 in 10.0 mi SE 5.8 mph - N/A   Clear
8:15 AM 23.0 °F 15.8 °F 17.6 °F 80% 29.55 in 10.0 mi SE 5.8 mph - N/A   Clear
8:35 AM 24.8 °F 16.1 °F 19.4 °F 80% 29.55 in 10.0 mi SSE 8.1 mph - N/A   Clear
8:55 AM 24.8 °F 16.1 °F 19.4 °F 80% 29.55 in 10.0 mi SSE 8.1 mph - N/A   Clear
9:15 AM 26.6 °F 16.2 °F 19.4 °F 74% 29.53 in 10.0 mi SE 11.5 mph - N/A   Clear
9:35 AM 26.6 °F 18.2 °F 19.4 °F 74% 29.52 in 10.0 mi SE 8.1 mph - N/A   Clear
9:55 AM 26.6 °F 16.2 °F 21.2 °F 80% 29.52 in 10.0 mi SE 11.5 mph - 0.39 in   Clear
10:35 AM 28.4 °F 19.7 °F 21.2 °F 74% 29.52 in 10.0 mi SSE 9.2 mph - N/A   Clear
10:55 AM 28.4 °F 21.2 °F 21.2 °F 74% 29.52 in 10.0 mi SSE 6.9 mph - 0.11 in   Clear
11:15 AM 30.2 °F 24.3 °F 23.0 °F 75% 29.51 in 10.0 mi SSE 5.8 mph - 0.01 in   Clear
11:35 AM 28.4 °F - 23.0 °F 80% 29.49 in 10.0 mi Calm Calm - N/A   Clear
11:55 AM 30.2 °F 25.4 °F 23.0 °F 75% 29.49 in 10.0 mi South 4.6 mph - N/A   Clear
12:15 PM 30.2 °F 23.4 °F 24.8 °F 80% 29.49 in 10.0 mi SSE 6.9 mph - N/A   Mostly Cloudy
12:35 PM 30.2 °F 21.9 °F 24.8 °F 80% 29.48 in 10.0 mi SSE 9.2 mph - N/A   Overcast
12:55 PM 30.2 °F 21.9 °F 24.8 °F 80% 29.47 in 10.0 mi SSE 9.2 mph - 0.02 in   Overcast
1:15 PM 32.0 °F 25.6 °F 24.8 °F 75% 29.47 in 10.0 mi South 6.9 mph - N/A   Overcast
1:35 PM 32.0 °F 27.5 °F 24.8 °F 75% 29.46 in 10.0 mi SSW 4.6 mph - N/A   Overcast
1:55 PM 32.0 °F 27.5 °F 26.6 °F 80% 29.46 in 10.0 mi South 4.6 mph - N/A   Overcast
2:15 PM 33.8 °F 30.8 °F 26.6 °F 75% 29.45 in 10.0 mi SSW 3.5 mph - N/A   Overcast
2:35 PM 33.8 °F 27.7 °F 26.6 °F 75% 29.46 in 10.0 mi WSW 6.9 mph - N/A   Overcast
2:55 PM 33.8 °F 29.6 °F 26.6 °F 75% 29.47 in 7.0 mi WSW 4.6 mph - N/A   Overcast
3:15 PM 33.8 °F 27.7 °F 26.6 °F 75% 29.47 in 4.0 mi WSW 6.9 mph - N/A Snow Light Snow
3:35 PM 32.0 °F 25.6 °F 28.4 °F 87% 29.47 in 1.2 mi West 6.9 mph - N/A Snow Light Snow
3:55 PM 32.0 °F 26.4 °F 28.4 °F 87% 29.48 in 2.0 mi West 5.8 mph - N/A Snow Light Snow
4:15 PM 32.0 °F - 28.4 °F 87% 29.48 in 2.5 mi Calm Calm - N/A Snow Light Snow
4:35 PM 30.2 °F 25.4 °F 28.4 °F 93% 29.47 in 1.5 mi WSW 4.6 mph - N/A Snow Light Snow
4:55 PM 30.2 °F 25.4 °F 28.4 °F 93% 29.47 in 1.0 mi WSW 4.6 mph - N/A Snow Light Snow
5:15 PM 30.2 °F 25.4 °F 28.4 °F 93% 29.47 in 1.2 mi West 4.6 mph - N/A Snow Light Snow
5:35 PM 30.2 °F 25.4 °F 28.4 °F 93% 29.48 in 1.0 mi West 4.6 mph - N/A Snow Light Snow
5:55 PM 30.2 °F 25.4 °F 28.4 °F 93% 29.47 in 2.0 mi WNW 4.6 mph - N/A Snow Light Snow
6:15 PM 30.2 °F 24.3 °F 28.4 °F 93% 29.46 in 1.8 mi WNW 5.8 mph - N/A Snow Light Snow
6:35 PM 30.2 °F 25.4 °F 28.4 °F 93% 29.48 in 2.0 mi West 4.6 mph - N/A Snow Light Snow
6:55 PM 30.2 °F 24.3 °F 28.4 °F 93% 29.48 in 2.5 mi West 5.8 mph - N/A Snow Light Snow
7:15 PM 30.2 °F 24.3 °F 28.4 °F 93% 29.48 in 3.0 mi WNW 5.8 mph - N/A   Overcast
7:35 PM 30.2 °F 24.3 °F 28.4 °F 93% 29.48 in 3.0 mi WNW 5.8 mph - N/A Snow Light Snow
7:55 PM 30.2 °F 20.2 °F 28.4 °F 93% 29.47 in 2.5 mi WNW 12.7 mph - N/A   Overcast
8:15 PM 30.2 °F 21.3 °F 28.4 °F 93% 29.47 in 3.0 mi WNW 10.4 mph - N/A   Overcast
8:35 PM 28.4 °F 19.1 °F 26.6 °F 93% 29.46 in 3.0 mi NW 10.4 mph 18.4 mph N/A   Overcast
8:55 PM 28.4 °F 18.0 °F 26.6 °F 93% 29.46 in 4.0 mi WNW 12.7 mph - 0.02 in   Overcast
9:15 PM 28.4 °F 17.5 °F 24.8 °F 86% 29.46 in 4.0 mi NW 13.8 mph 21.9 mph 0.28 in   Overcast
9:35 PM 28.4 °F 18.0 °F 24.8 °F 86% 29.46 in 4.0 mi NW 12.7 mph 18.4 mph N/A   Overcast
9:55 PM 26.6 °F 14.7 °F 24.8 °F 93% 29.46 in 4.0 mi WNW 15.0 mph - N/A   Overcast
10:15 PM 26.6 °F 15.2 °F 24.8 °F 93% 29.46 in 3.0 mi NW 13.8 mph 19.6 mph N/A   Overcast
10:35 PM 26.6 °F 15.2 °F 24.8 °F 93% 29.46 in 4.0 mi NW 13.8 mph 20.7 mph N/A   Overcast
10:55 PM 26.6 °F 15.2 °F 24.8 °F 93% 29.46 in 3.0 mi NW 13.8 mph 18.4 mph N/A   Overcast
11:15 PM 26.6 °F 15.7 °F 24.8 °F 93% 29.47 in 4.0 mi NW 12.7 mph - N/A   Overcast
11:35 PM 26.6 °F 15.2 °F 23.0 °F 86% 29.47 in 4.0 mi NW 13.8 mph 19.6 mph N/A   Overcast
11:55 PM 24.8 °F 10.3 °F 21.2 °F 86% 29.48 in 4.0 mi WNW 20.7 mph - N/A   Overcast